Charlottesville, VA

4:53 AM EDT on July 27, 2017 (GMT -0400)
Charlottesville-Albemarle

Weather History for KCHO - October, 2011

Change the Weather History Date:

Monday, October 24, 2011

  Actual Average Record
Temperature  
Mean Temperature 55 °F 54 °F  
Max Temperature 69 °F 65 °F 85 °F (1909)
Min Temperature 41 °F 42 °F 27 °F (1969)
Degree Days  
Heating Degree Days 10 12  
Month to date heating degree days 141 202  
Since 1 July heating degree days 167 260  
Cooling Degree Days 0 0  
Month to date cooling degree days 4 12  
Year to date cooling degree days 1603 1033  
Growing Degree Days 5 (Base 50)    
Moisture  
Dew Point 46 °F    
Average Humidity 70    
Maximum Humidity 96    
Minimum Humidity 44    
Precipitation  
Precipitation 0.02 in 0.09 in 2.49 in (1971)
Month to date precipitation 4.44 2.46  
Year to date precipitation 39.93 35.08  
Sea Level Pressure  
Sea Level Pressure 30.06 in    
Wind  
Wind Speed 3 mph (SSW)    
Max Wind Speed 14 mph    
Max Gust Speed 14 mph    
Visibility 8 miles    
Events Rain    
T = Trace of Precipitation, MM = Missing Value Source: NWS Daily Summary

Daily Weather History Graph

Daily Weather History Graph

Search for Another Location

Airport or City:

Trip Planner

Search our weather history database for the weather conditions in past years. The results will help you decide how hot, cold, wet, or windy it might be!

Date:

Astronomy

Oct. 24, 2011 Rise Set
Actual Time 7:31 AM EDT 6:24 PM EDT
Civil Twilight 7:04 AM EDT 6:51 PM EDT
Nautical Twilight 6:33 AM EDT 7:22 PM EDT
Astronomical Twilight 6:02 AM EDT 7:52 PM EDT
Moon 4:49 AM EDT (10/24) 4:46 PM EDT (10/24)
Length of Visible Light 11h 46m
Length of Day
10h 53m
Waning Crescent, 7% of the Moon is Illuminated
Oct 24
Waning Crescent
Oct 26
New
Nov 2
First Quarter
Nov 10
Full
Nov 18
Last Quarter

Hourly Weather History & Observations

Time (EDT) Temp. Windchill Dew Point Humidity Pressure Visibility Wind Dir Wind Speed Gust Speed Precip Events Conditions
12:53 AM 46.0 °F - 44.1 °F 93% 30.12 in 9.0 mi Calm Calm - N/A   Clear
1:53 AM 44.1 °F - 42.1 °F 93% 30.11 in 6.0 mi Calm Calm - N/A   Clear
2:53 AM 45.0 °F - 43.0 °F 93% 30.09 in 6.0 mi Calm Calm - N/A   Clear
3:53 AM 43.0 °F - 39.9 °F 89% 30.08 in 5.0 mi Calm Calm - N/A   Clear
4:53 AM 41.0 °F - 39.9 °F 96% 30.07 in 5.0 mi Calm Calm - N/A   Clear
5:53 AM 42.1 °F - 41.0 °F 96% 30.07 in 5.0 mi Calm Calm - N/A   Clear
6:53 AM 44.1 °F 42.5 °F 42.1 °F 93% 30.08 in 7.0 mi WSW 3.5 mph - N/A   Clear
7:53 AM 44.1 °F - 42.1 °F 93% 30.09 in 4.0 mi Calm Calm - N/A   Clear
8:53 AM 48.0 °F - 45.0 °F 89% 30.10 in 8.0 mi Calm Calm - N/A   Clear
9:53 AM 52.0 °F - 46.9 °F 83% 30.09 in 10.0 mi Calm Calm - N/A   Clear
10:53 AM 57.9 °F - 48.9 °F 72% 30.08 in 10.0 mi South 3.5 mph - N/A   Clear
11:53 AM 60.1 °F - 48.9 °F 67% 30.09 in 10.0 mi Calm Calm - N/A   Overcast
12:53 PM 63.0 °F - 50.0 °F 63% 30.06 in 10.0 mi South 5.8 mph - N/A   Mostly Cloudy
1:53 PM 66.0 °F - 46.9 °F 50% 30.03 in 10.0 mi South 4.6 mph - N/A   Mostly Cloudy
2:53 PM 68.0 °F - 46.4 °F 46% 30.01 in 10.0 mi Variable 6.9 mph - N/A   Scattered Clouds
3:53 PM 69.1 °F - 46.0 °F 44% 29.99 in 10.0 mi South 4.6 mph - N/A   Partly Cloudy
4:34 PM 69.8 °F - 46.4 °F 43% 29.98 in 10.0 mi SW 11.5 mph - 0.00 in   Scattered Clouds
4:53 PM 69.1 °F - 46.0 °F 44% 29.97 in 10.0 mi SW 11.5 mph - 0.00 in   Partly Cloudy
5:53 PM 62.1 °F - 50.0 °F 65% 29.99 in 10.0 mi Calm Calm - N/A   Mostly Cloudy
6:53 PM 60.1 °F - 53.1 °F 78% 30.04 in 6.0 mi NW 11.5 mph - 0.02 in Rain Rain
7:53 PM 55.0 °F - 53.1 °F 93% 30.04 in 8.0 mi Variable 3.5 mph - 0.00 in   Clear
8:53 PM 52.0 °F - 50.0 °F 93% 30.06 in 6.0 mi Calm Calm - N/A   Clear
9:53 PM 51.8 °F - 48.2 °F 88% 30.07 in 6.0 mi Calm Calm - N/A   Clear
10:53 PM 51.1 °F - 48.9 °F 92% 30.08 in 5.0 mi Calm Calm - N/A   Clear
11:53 PM 50.0 °F - 48.2 °F 94% 30.08 in 10.0 mi Calm Calm - N/A   Clear